Time,TemperatureF,DewpointF,PressureIn,WindDirection,WindDirectionDegrees,WindSpeedMPH,WindSpeedGustMPH,Humidity,HourlyPrecipIn,Conditions,Clouds,dailyrainin,SoftwareType,DateUTC
2013-01-30 00:03:00,58.0,53.0,-100.00,SE,135,9.0,21.0,84,0.00,,,-99.99,,2013-01-30 05:03:00,
2013-01-30 00:12:00,58.0,54.0,-100.00,ESE,120,9.0,18.0,84,0.00,,,-99.99,,2013-01-30 05:12:00,
2013-01-30 00:22:00,59.0,54.0,-100.00,SE,130,9.0,17.0,83,0.00,,,-99.99,,2013-01-30 05:22:00,
2013-01-30 00:32:00,60.0,54.0,-100.00,SE,125,12.0,22.0,82,0.00,,,-99.99,,2013-01-30 05:32:00,
2013-01-30 00:43:00,60.0,55.0,-100.00,ESE,115,11.0,19.0,81,0.00,,,-99.99,,2013-01-30 05:43:00,
2013-01-30 00:52:00,60.0,55.0,-100.00,ESE,120,10.0,20.0,81,0.00,,,-99.99,,2013-01-30 05:52:00,
2013-01-30 01:02:00,60.0,55.0,-100.00,SSE,150,11.0,21.0,80,0.00,,,-99.99,,2013-01-30 06:02:00,
2013-01-30 01:11:00,60.0,55.0,-100.00,ESE,110,10.0,22.0,80,0.00,,,-99.99,,2013-01-30 06:11:00,
2013-01-30 01:21:00,60.0,55.0,-100.00,ESE,120,13.0,25.0,81,0.00,,,-99.99,,2013-01-30 06:21:00,
2013-01-30 01:32:00,60.0,54.0,-100.00,ESE,110,15.0,30.0,82,0.00,,,-99.99,,2013-01-30 06:32:00,
2013-01-30 01:42:00,60.0,54.0,-100.00,ESE,120,12.0,25.0,82,0.00,,,-99.99,,2013-01-30 06:42:00,
2013-01-30 01:52:00,60.0,54.0,-100.00,SE,130,12.0,25.0,82,0.00,,,-99.99,,2013-01-30 06:52:00,
2013-01-30 02:02:00,60.0,54.0,-100.00,SE,125,14.0,27.0,81,0.00,,,-99.99,,2013-01-30 07:02:00,
2013-01-30 02:11:00,60.0,54.0,-100.00,SE,135,12.0,19.0,81,0.00,,,-99.99,,2013-01-30 07:11:00,
2013-01-30 02:21:00,60.0,54.0,-100.00,ESE,115,15.0,25.0,80,0.00,,,-99.99,,2013-01-30 07:21:00,
2013-01-30 02:32:00,59.0,54.0,-100.00,ESE,110,14.0,29.0,81,0.00,,,-99.99,,2013-01-30 07:32:00,
2013-01-30 02:42:00,59.0,54.0,-100.00,SE,125,12.0,28.0,82,0.00,,,-99.99,,2013-01-30 07:42:00,
2013-01-30 02:52:00,59.0,54.0,-100.00,ESE,120,13.0,24.0,82,0.00,,,-99.99,,2013-01-30 07:52:00,
2013-01-30 03:02:00,59.0,54.0,-100.00,ESE,105,14.0,25.0,82,0.00,,,-99.99,,2013-01-30 08:02:00,
2013-01-30 03:11:00,59.0,54.0,-100.00,ESE,115,17.0,29.0,81,0.00,,,-99.99,,2013-01-30 08:11:00,
2013-01-30 03:21:00,59.0,53.0,-100.00,ESE,110,14.0,27.0,81,0.00,,,-99.99,,2013-01-30 08:21:00,
2013-01-30 03:32:00,59.0,54.0,-100.00,SE,125,11.0,27.0,81,0.00,,,-99.99,,2013-01-30 08:32:00,
2013-01-30 03:42:00,59.0,54.0,-100.00,SE,145,11.0,25.0,81,0.00,,,-99.99,,2013-01-30 08:42:00,
2013-01-30 03:52:00,60.0,54.0,-100.00,SE,130,14.0,34.0,80,0.00,,,-99.99,,2013-01-30 08:52:00,
2013-01-30 04:02:00,60.0,53.0,-100.00,ESE,120,13.0,27.0,80,0.00,,,-99.99,,2013-01-30 09:02:00,
2013-01-30 04:11:00,60.0,53.0,-100.00,SE,125,16.0,27.0,80,0.00,,,-99.99,,2013-01-30 09:11:00,
2013-01-30 04:21:00,60.0,54.0,-100.00,ESE,115,12.0,24.0,80,0.00,,,-99.99,,2013-01-30 09:21:00,
2013-01-30 04:32:00,60.0,54.0,-100.00,SE,140,14.0,26.0,79,0.00,,,-99.99,,2013-01-30 09:32:00,
2013-01-30 04:42:00,60.0,54.0,-100.00,ESE,120,12.0,26.0,79,0.00,,,-99.99,,2013-01-30 09:42:00,
2013-01-30 04:51:00,60.0,54.0,-100.00,SE,135,9.0,24.0,80,0.00,,,-99.99,,2013-01-30 09:51:00,
2013-01-30 05:01:00,60.0,54.0,-100.00,ESE,115,16.0,25.0,80,0.00,,,-99.99,,2013-01-30 10:01:00,
2013-01-30 05:11:00,60.0,54.0,-100.00,ESE,115,13.0,24.0,79,0.00,,,-99.99,,2013-01-30 10:11:00,
2013-01-30 05:21:00,60.0,54.0,-100.00,ESE,110,12.0,24.0,79,0.00,,,-99.99,,2013-01-30 10:21:00,
2013-01-30 05:32:00,60.0,54.0,-100.00,ESE,110,12.0,24.0,79,0.00,,,-99.99,,2013-01-30 10:32:00,
2013-01-30 05:42:00,60.0,54.0,-100.00,ESE,115,12.0,21.0,79,0.00,,,-99.99,,2013-01-30 10:42:00,
2013-01-30 05:52:00,61.0,54.0,-100.00,ESE,110,7.0,25.0,79,0.00,,,-99.99,,2013-01-30 10:52:00,
2013-01-30 06:02:00,61.0,54.0,-100.00,SE,135,7.0,21.0,79,0.00,,,-99.99,,2013-01-30 11:02:00,
2013-01-30 06:11:00,57.0,53.0,-100.00,WSW,250,7.0,22.0,85,2.24,,,-99.99,,2013-01-30 11:11:00,
2013-01-30 06:22:00,53.0,51.0,-100.00,WSW,250,8.0,19.0,93,10.75,,,-99.99,,2013-01-30 11:22:00,
2013-01-30 06:33:00,53.0,51.0,-100.00,West,265,10.0,14.0,94,10.75,,,-99.99,,2013-01-30 11:33:00,
2013-01-30 06:42:00,52.0,50.0,-100.00,West,270,12.0,19.0,94,10.75,,,-99.99,,2013-01-30 11:42:00,
2013-01-30 06:52:00,51.0,50.0,-100.00,West,270,14.0,24.0,94,7.91,,,-99.99,,2013-01-30 11:52:00,
2013-01-30 07:02:00,51.0,49.0,-100.00,West,275,15.0,21.0,94,2.83,,,-99.99,,2013-01-30 12:02:00,
2013-01-30 07:12:00,51.0,49.0,-100.00,West,275,17.0,24.0,94,2.24,,,-99.99,,2013-01-30 12:12:00,
2013-01-30 07:22:00,51.0,49.0,-100.00,West,260,14.0,25.0,95,1.69,,,-99.99,,2013-01-30 12:22:00,
2013-01-30 07:33:00,51.0,49.0,-100.00,WSW,250,8.0,22.0,95,3.39,,,-99.99,,2013-01-30 12:33:00,
2013-01-30 07:43:00,50.0,49.0,-100.00,West,265,6.0,17.0,95,2.24,,,-99.99,,2013-01-30 12:43:00,
2013-01-30 08:03:00,50.0,49.0,-100.00,SSW,210,1.0,5.0,95,6.77,,,-99.99,,2013-01-30 13:03:00,
2013-01-30 08:12:00,50.0,49.0,-100.00,ESE,120,0.0,2.0,95,2.83,,,-99.99,,2013-01-30 13:12:00,
2013-01-30 08:23:00,50.0,48.0,-100.00,ENE,70,2.0,3.0,95,3.39,,,-99.99,,2013-01-30 13:23:00,
2013-01-30 08:33:00,50.0,49.0,-100.00,East,95,4.0,5.0,95,0.00,,,-99.99,,2013-01-30 13:33:00,
2013-01-30 08:42:00,50.0,49.0,-100.00,ESE,105,4.0,6.0,95,0.00,,,-99.99,,2013-01-30 13:42:00,
2013-01-30 08:52:00,50.0,49.0,-100.00,ESE,110,4.0,6.0,95,0.00,,,-99.99,,2013-01-30 13:52:00,
2013-01-30 09:03:00,50.0,49.0,-100.00,SE,145,1.0,6.0,95,0.00,,,-99.99,,2013-01-30 14:03:00,
2013-01-30 09:12:00,50.0,49.0,-100.00,ESE,110,6.0,9.0,95,0.00,,,-99.99,,2013-01-30 14:12:00,
2013-01-30 09:23:00,50.0,49.0,-100.00,ESE,105,5.0,9.0,95,0.00,,,-99.99,,2013-01-30 14:23:00,
2013-01-30 09:33:00,50.0,49.0,-100.00,ESE,105,6.0,9.0,95,0.00,,,-99.99,,2013-01-30 14:33:00,
2013-01-30 09:42:00,51.0,49.0,-100.00,ESE,110,4.0,12.0,95,0.00,,,-99.99,,2013-01-30 14:42:00,
2013-01-30 09:52:00,51.0,50.0,-100.00,ESE,105,6.0,11.0,95,0.00,,,-99.99,,2013-01-30 14:52:00,
2013-01-30 10:03:00,51.0,50.0,-100.00,ESE,120,7.0,11.0,94,0.00,,,-99.99,,2013-01-30 15:03:00,
2013-01-30 10:12:00,51.0,50.0,-100.00,ESE,120,11.0,21.0,94,0.00,,,-99.99,,2013-01-30 15:12:00,
2013-01-30 10:23:00,52.0,50.0,-100.00,ESE,115,11.0,21.0,95,0.00,,,-99.99,,2013-01-30 15:23:00,
2013-01-30 10:33:00,52.0,50.0,-100.00,ESE,120,12.0,17.0,94,0.00,,,-99.99,,2013-01-30 15:33:00,
2013-01-30 10:43:00,52.0,50.0,-100.00,ESE,110,9.0,19.0,94,0.00,,,-99.99,,2013-01-30 15:43:00,
2013-01-30 10:53:00,52.0,50.0,-100.00,ESE,110,9.0,19.0,94,0.00,,,-99.99,,2013-01-30 15:53:00,
2013-01-30 11:03:00,52.0,49.0,-100.00,ESE,105,9.0,21.0,88,0.00,,,-99.99,,2013-01-30 16:03:00,
2013-01-30 11:12:00,52.0,49.0,-100.00,SE,135,12.0,22.0,87,0.00,,,-99.99,,2013-01-30 16:12:00,
2013-01-30 11:23:00,52.0,49.0,-100.00,SE,125,14.0,21.0,87,0.00,,,-99.99,,2013-01-30 16:23:00,
2013-01-30 11:32:00,52.0,49.0,-100.00,ESE,120,10.0,19.0,87,0.00,,,-99.99,,2013-01-30 16:32:00,
2013-01-30 11:42:00,53.0,49.0,-100.00,SE,145,6.0,19.0,85,0.00,,,-99.99,,2013-01-30 16:42:00,
2013-01-30 11:52:00,53.0,49.0,-100.00,SSE,155,9.0,16.0,85,0.00,,,-99.99,,2013-01-30 16:52:00,
2013-01-30 12:02:00,53.0,48.0,-100.00,SSE,155,9.0,16.0,84,0.00,,,-99.99,,2013-01-30 17:02:00,
2013-01-30 12:12:00,53.0,48.0,-100.00,SSE,155,8.0,18.0,84,0.00,,,-99.99,,2013-01-30 17:12:00,
2013-01-30 12:23:00,53.0,48.0,-100.00,SSE,160,4.0,18.0,83,0.00,,,-99.99,,2013-01-30 17:23:00,
2013-01-30 12:33:00,53.0,48.0,-100.00,SE,145,9.0,16.0,81,0.00,,,-99.99,,2013-01-30 17:33:00,
2013-01-30 12:42:00,54.0,48.0,-100.00,South,170,7.0,17.0,80,0.00,,,-99.99,,2013-01-30 17:42:00,
2013-01-30 12:53:00,54.0,48.0,-100.00,SSE,160,12.0,24.0,79,0.00,,,-99.99,,2013-01-30 17:53:00,
2013-01-30 13:03:00,54.0,47.0,-100.00,South,180,13.0,20.0,79,0.00,,,-99.99,,2013-01-30 18:03:00,
2013-01-30 13:12:00,54.0,48.0,-100.00,SSE,160,9.0,24.0,79,0.00,,,-99.99,,2013-01-30 18:12:00,
2013-01-30 13:23:00,54.0,48.0,-100.00,SSE,160,9.0,24.0,79,0.00,,,-99.99,,2013-01-30 18:23:00,
2013-01-30 13:33:00,54.0,48.0,-100.00,SSE,155,11.0,21.0,79,0.00,,,-99.99,,2013-01-30 18:33:00,
2013-01-30 13:42:00,54.0,48.0,-100.00,South,170,9.0,24.0,79,0.00,,,-99.99,,2013-01-30 18:42:00,
2013-01-30 13:52:00,54.0,47.0,-100.00,South,175,10.0,25.0,79,0.00,,,-99.99,,2013-01-30 18:52:00,
2013-01-30 14:03:00,54.0,47.0,-100.00,South,180,11.0,26.0,79,0.00,,,-99.99,,2013-01-30 19:03:00,
2013-01-30 14:12:00,53.0,47.0,-100.00,SSE,165,9.0,25.0,80,0.00,,,-99.99,,2013-01-30 19:12:00,
2013-01-30 14:22:00,53.0,47.0,-100.00,South,180,9.0,24.0,80,0.00,,,-99.99,,2013-01-30 19:22:00,
2013-01-30 14:33:00,53.0,47.0,-100.00,SSE,165,9.0,21.0,80,0.00,,,-99.99,,2013-01-30 19:33:00,
2013-01-30 14:43:00,53.0,47.0,-100.00,South,175,13.0,24.0,80,0.00,,,-99.99,,2013-01-30 19:43:00,
2013-01-30 14:52:00,53.0,47.0,-100.00,SSE,165,9.0,25.0,80,0.00,,,-99.99,,2013-01-30 19:52:00,
2013-01-30 15:03:00,53.0,47.0,-100.00,South,175,7.0,21.0,80,0.00,,,-99.99,,2013-01-30 20:03:00,
2013-01-30 15:12:00,53.0,47.0,-100.00,SSW,195,6.0,16.0,81,0.00,,,-99.99,,2013-01-30 20:12:00,
2013-01-30 15:22:00,53.0,47.0,-100.00,SSW,195,9.0,19.0,80,0.00,,,-99.99,,2013-01-30 20:22:00,
2013-01-30 15:33:00,53.0,47.0,-100.00,SSE,155,6.0,16.0,81,0.00,,,-99.99,,2013-01-30 20:33:00,
2013-01-30 15:42:00,53.0,47.0,-100.00,South,175,7.0,12.0,82,0.00,,,-99.99,,2013-01-30 20:42:00,
2013-01-30 15:52:00,52.0,48.0,-100.00,SSE,165,9.0,19.0,83,0.00,,,-99.99,,2013-01-30 20:52:00,
2013-01-30 16:03:00,52.0,48.0,-100.00,South,175,7.0,15.0,84,0.00,,,-99.99,,2013-01-30 21:03:00,
2013-01-30 16:12:00,52.0,48.0,-100.00,South,170,7.0,16.0,83,0.00,,,-99.99,,2013-01-30 21:12:00,
2013-01-30 16:23:00,52.0,47.0,-100.00,South,175,7.0,17.0,82,0.00,,,-99.99,,2013-01-30 21:23:00,
2013-01-30 16:32:00,52.0,47.0,-100.00,SSE,165,7.0,17.0,82,0.00,,,-99.99,,2013-01-30 21:32:00,
2013-01-30 16:42:00,52.0,47.0,-100.00,SSE,150,6.0,18.0,82,0.00,,,-99.99,,2013-01-30 21:42:00,
2013-01-30 17:03:00,52.0,47.0,-100.00,SE,140,8.0,16.0,81,0.00,,,-99.99,,2013-01-30 22:03:00,
2013-01-30 17:12:00,52.0,47.0,-100.00,SSE,165,7.0,14.0,81,0.00,,,-99.99,,2013-01-30 22:12:00,
2013-01-30 17:22:00,52.0,47.0,-100.00,South,180,8.0,22.0,81,0.00,,,-99.99,,2013-01-30 22:22:00,
2013-01-30 17:32:00,52.0,47.0,-100.00,SE,145,8.0,19.0,81,0.00,,,-99.99,,2013-01-30 22:32:00,
2013-01-30 17:42:00,52.0,46.0,-100.00,SSE,165,9.0,16.0,80,0.00,,,-99.99,,2013-01-30 22:42:00,
2013-01-30 17:52:00,52.0,46.0,-100.00,SSE,155,6.0,17.0,80,0.00,,,-99.99,,2013-01-30 22:52:00,
2013-01-30 18:02:00,52.0,46.0,-100.00,SSE,165,9.0,16.0,80,0.00,,,-99.99,,2013-01-30 23:02:00,
2013-01-30 18:12:00,51.0,46.0,-100.00,South,175,7.0,16.0,80,0.00,,,-99.99,,2013-01-30 23:12:00,
2013-01-30 18:22:00,51.0,46.0,-100.00,South,175,7.0,16.0,80,0.00,,,-99.99,,2013-01-30 23:22:00,
2013-01-30 18:33:00,51.0,45.0,-100.00,SSW,195,9.0,19.0,79,0.00,,,-99.99,,2013-01-30 23:33:00,
2013-01-30 18:42:00,51.0,45.0,-100.00,South,175,8.0,19.0,79,0.00,,,-99.99,,2013-01-30 23:42:00,
2013-01-30 18:52:00,51.0,45.0,-100.00,SSE,155,9.0,17.0,78,0.00,,,-99.99,,2013-01-30 23:52:00,
2013-01-30 19:02:00,51.0,45.0,-100.00,South,180,9.0,20.0,78,0.00,,,-99.99,,2013-01-31 00:02:00,
2013-01-30 19:11:00,51.0,44.0,-100.00,South,170,9.0,21.0,78,0.00,,,-99.99,,2013-01-31 00:11:00,
2013-01-30 19:22:00,50.0,43.0,-100.00,South,180,16.0,26.0,76,0.00,,,-99.99,,2013-01-31 00:22:00,
2013-01-30 19:32:00,40.0,38.0,-100.00,WSW,245,17.0,32.0,90,0.00,,,-99.99,,2013-01-31 00:32:00,
2013-01-30 19:42:00,40.0,38.0,-100.00,WSW,245,12.0,21.0,91,0.00,,,-99.99,,2013-01-31 00:42:00,
2013-01-30 19:52:00,40.0,36.0,-100.00,SW,235,14.0,24.0,87,0.00,,,-99.99,,2013-01-31 00:52:00,
2013-01-30 20:02:00,39.0,36.0,-100.00,WSW,250,15.0,29.0,88,0.00,,,-99.99,,2013-01-31 01:02:00,
2013-01-30 20:12:00,37.0,35.0,-100.00,WSW,255,16.0,31.0,89,0.00,,,-99.99,,2013-01-31 01:12:00,
2013-01-30 20:22:00,36.0,32.0,-100.00,SW,235,21.0,32.0,84,0.00,,,-99.99,,2013-01-31 01:22:00,
2013-01-30 20:32:00,36.0,32.0,-100.00,SW,235,14.0,23.0,86,0.00,,,-99.99,,2013-01-31 01:32:00,
2013-01-30 20:42:00,36.0,32.0,-100.00,WSW,250,15.0,25.0,86,0.00,,,-99.99,,2013-01-31 01:42:00,
2013-01-30 20:52:00,36.0,32.0,-100.00,WSW,245,12.0,24.0,85,0.00,,,-99.99,,2013-01-31 01:52:00,
2013-01-30 21:01:00,36.0,30.0,-100.00,SW,230,19.0,32.0,79,0.00,,,-99.99,,2013-01-31 02:01:00,
2013-01-30 21:12:00,35.0,29.0,-100.00,SW,215,18.0,35.0,77,0.00,,,-99.99,,2013-01-31 02:12:00,
2013-01-30 21:22:00,35.0,29.0,-100.00,SW,225,17.0,29.0,79,0.00,,,-99.99,,2013-01-31 02:22:00,
2013-01-30 21:32:00,34.0,29.0,-100.00,WSW,245,19.0,26.0,80,0.00,,,-99.99,,2013-01-31 02:32:00,
2013-01-30 21:42:00,34.0,29.0,-100.00,WSW,245,19.0,26.0,80,0.00,,,-99.99,,2013-01-31 02:42:00,
2013-01-30 21:52:00,34.0,29.0,-100.00,WSW,245,19.0,26.0,80,0.00,,,-99.99,,2013-01-31 02:52:00,
2013-01-30 22:03:00,33.0,29.0,-100.00,WSW,240,15.0,29.0,82,0.00,,,-99.99,,2013-01-31 03:03:00,
2013-01-30 22:11:00,33.0,29.0,-100.00,SW,230,13.0,29.0,82,0.00,,,-99.99,,2013-01-31 03:11:00,
2013-01-30 22:21:00,33.0,27.0,-100.00,SW,235,20.0,37.0,79,0.00,,,-99.99,,2013-01-31 03:21:00,
2013-01-30 22:32:00,32.0,27.0,-100.00,WSW,240,17.0,32.0,80,0.00,,,-99.99,,2013-01-31 03:32:00,
2013-01-30 22:42:00,32.0,27.0,-100.00,WSW,250,16.0,30.0,80,0.00,,,-99.99,,2013-01-31 03:42:00,
2013-01-30 22:51:00,32.0,27.0,-100.00,WSW,245,20.0,35.0,80,0.00,,,-99.99,,2013-01-31 03:51:00,
2013-01-30 23:02:00,31.0,26.0,-100.00,WSW,240,22.0,35.0,80,0.00,,,-99.99,,2013-01-31 04:02:00,
2013-01-30 23:11:00,31.0,26.0,-100.00,WSW,240,22.0,35.0,80,0.00,,,-99.99,,2013-01-31 04:11:00,
2013-01-30 23:22:00,31.0,26.0,-100.00,WSW,250,19.0,32.0,81,0.00,,,-99.99,,2013-01-31 04:22:00,
2013-01-30 23:32:00,31.0,26.0,-100.00,SW,215,17.0,34.0,81,0.00,,,-99.99,,2013-01-31 04:32:00,
2013-01-30 23:41:00,31.0,26.0,-100.00,WSW,240,19.0,32.0,82,0.00,,,-99.99,,2013-01-31 04:41:00,
2013-01-30 23:52:00,31.0,26.0,-100.00,SW,235,23.0,35.0,80,0.00,,,-99.99,,2013-01-31 04:52:00,